ATLAS 5 CENTAUR R/B, 44483

Orbit data source: Space-Track

ATLAS 5 CENTAUR R/B, 44483 is space debris in HEO originally from a launch on Thu, 08 Aug 2019 UTC launched from the Air Force Eastern Test Range (AFETR). Debris objects in space refer to the collection of defunct objects orbiting the Earth. Examples of debris include non-operational satellites, rocket bodies, and fragments generated from explosions, collisions, or faulty payload assembly.

Loading next visibility...
Identifier
44483, 2019-051C
Orbit
HEO
Country
Flag of USUS
Related business
Flag of USUnited Launch Alliance/Lockheed Martin (US)
Manufacturer
ULA Decatur
Mission
Spacecraft
Bus & Motor
CENTAUR SEC, RL10C-1
Mass
~2,020 kg wet, 2,020 kg dry
Launch date (UTC)
2019-08-08 (7 years ago)
Launch vehicle
Unknown
Launch site
Air Force Eastern Test Range (AFETR)
Object type
Payload
Rocket body
Debris
Shape & HBR
Cyl + 1 Nozzle, 5.8 m
Radar Cross Section
32.260 m², Large (>1 m²)

Expand to show TLE details & history
Last TLE update: 3 days ago

TLE from 3 days ago
0 ATLAS 5 CENTAUR R/B
1 44483U 19051C   26170.79326270 -.00000094  00000-0  00000+0 0  9994
2 44483   7.2249 141.4862 3492053 107.4658 293.0665  1.59359811 39973
Epoch: 2026-06-19T19:02Z
TLE epoch observation values (Epoch: 2026-06-19T19:02:17.897Z)
Latitude
0.00001°
Longitude
-52.23274°
Altitude
24,023.035 km
Speed
3.654 km/s
True Right ascension
09h 25m 26s
True Declination
0° 00' 00"
Sunlit
Object was in daylight at epoch
Visualization orbit readout
Latitude
Unknown
Longitude
Unknown
Altitude
Unknown
Speed
Unknown
Apparent Right ascension
Unknown
Apparent Declination
Unknown
Sunlit
N/A
Visualization observer readout
Local Sidereal Time
00:31:41
Azimuth
Unknown
Elevation
Unknown
Doppler factor
Unknown
Orbital elements
Apogee altitude
35,397.007 km
Perigee altitude
13,772.275 km
Semi-major axis
30,962.778 km
Eccentricity
0.34921
Inclination
7.2249°
RAAN
141.4862°
Arg. of periapsis
107.4658°
True anomaly
252.48203°
Mean anomaly
293.0665°
Eccentric anomaly
273.08755°
Mean motion
0.39837 °/min
Orbital period
903.69 mins
BSTAR
0
Loading maneuver chart data...
Computing Atmospheric mass density...
Loading historical data...
Loading historical data...
Loading historical data...
Loading historical data...
Loading historical data...
Loading historical data...
Loading historical data...
Other satellites on launch #51 in the year 2019 (2019-08-08 UTC)

Documentation

Showing up to 5 results
|